Time,TemperatureF,DewpointF,PressureIn,WindDirection,WindDirectionDegrees,WindSpeedMPH,WindSpeedGustMPH,Humidity,HourlyPrecipIn,Conditions,Clouds,dailyrainin,SoftwareType,DateUTC
2013-03-04 07:21:00,43.3,30.7,30.20,WSW,256,0.0,15.0,61,0.00,OVC,,0.00,WeatherDisplay:10.37,2013-03-04 12:21:00,
2013-03-04 07:22:00,43.3,30.7,30.20,WSW,256,0.0,0.0,61,0.00,OVC,,0.00,WeatherDisplay:10.37,2013-03-04 12:22:00,
2013-03-04 07:27:00,44.1,31.1,30.20,SE,127,0.0,0.0,60,0.00,OVC,,0.00,WeatherDisplay:10.37,2013-03-04 12:27:00,
2013-03-04 07:32:00,44.9,31.4,30.20,NW,321,0.6,2.3,59,0.00,OVC,,0.00,WeatherDisplay:10.37,2013-03-04 12:32:00,
2013-03-04 07:37:00,45.2,31.7,30.20,NNW,348,0.0,1.1,59,0.00,OVC,,0.00,WeatherDisplay:10.37,2013-03-04 12:37:00,
2013-03-04 07:42:00,45.6,31.7,30.20,SE,127,1.1,3.5,58,0.00,OVC,,0.00,WeatherDisplay:10.37,2013-03-04 12:42:00,
2013-03-04 07:47:00,45.8,31.4,30.20,ENE,71,1.3,2.3,57,0.00,OVC,,0.00,WeatherDisplay:10.37,2013-03-04 12:47:00,
2013-03-04 07:52:00,46.0,32.0,30.20,North,4,1.7,4.6,58,0.00,OVC,,0.00,WeatherDisplay:10.37,2013-03-04 12:52:00,
2013-03-04 07:57:00,46.1,31.7,30.21,ENE,64,0.9,3.5,57,0.00,OVC,,0.00,WeatherDisplay:10.37,2013-03-04 12:57:00,
2013-03-04 08:02:00,46.6,32.2,30.21,North,354,0.3,3.0,57,0.00,OVC,,0.00,WeatherDisplay:10.37,2013-03-04 13:02:00,
2013-03-04 08:07:00,46.8,32.4,30.21,ENE,64,0.6,2.3,57,0.00,OVC,,0.00,WeatherDisplay:10.37,2013-03-04 13:07:00,
2013-03-04 08:12:00,47.3,32.4,30.21,SSE,154,2.3,5.8,56,0.00,OVC,,0.00,WeatherDisplay:10.37,2013-03-04 13:12:00,
2013-03-04 08:17:00,47.2,32.3,30.21,NNE,26,2.5,5.8,56,0.00,OVC,,0.00,WeatherDisplay:10.37,2013-03-04 13:17:00,
2013-03-04 08:22:00,47.4,31.6,30.21,NNE,27,1.6,6.0,54,0.00,CLR,,0.00,WeatherDisplay:10.37,2013-03-04 13:22:00,
2013-03-04 08:27:00,47.3,31.0,30.21,NE,50,6.0,11.5,53,0.00,CLR,,0.00,WeatherDisplay:10.37,2013-03-04 13:27:00,
2013-03-04 08:32:00,47.4,31.1,30.20,North,8,6.6,10.4,53,0.00,CLR,,0.00,WeatherDisplay:10.37,2013-03-04 13:32:00,
2013-03-04 08:37:00,47.7,31.4,30.20,NNE,23,5.5,8.0,53,0.00,CLR,,0.00,WeatherDisplay:10.37,2013-03-04 13:37:00,
2013-03-04 08:42:00,48.1,31.8,30.21,SW,225,1.9,8.1,53,0.00,CLR,,0.00,WeatherDisplay:10.37,2013-03-04 13:42:00,
2013-03-04 08:47:00,48.8,32.4,30.21,NW,314,1.5,3.5,53,0.00,CLR,,0.00,WeatherDisplay:10.37,2013-03-04 13:47:00,
2013-03-04 08:52:00,49.2,32.3,30.21,ENE,65,2.3,4.0,52,0.00,CLR,,0.00,WeatherDisplay:10.37,2013-03-04 13:52:00,
2013-03-04 08:57:00,49.7,32.8,30.22,East,94,1.4,3.5,52,0.00,CLR,,0.00,WeatherDisplay:10.37,2013-03-04 13:57:00,
2013-03-04 09:02:00,50.4,32.4,30.22,NE,37,2.8,3.5,50,0.00,CLR,,0.00,WeatherDisplay:10.37,2013-03-04 14:02:00,
2013-03-04 09:07:00,50.3,32.4,30.22,NNE,20,4.6,8.1,50,0.00,CLR,,0.00,WeatherDisplay:10.37,2013-03-04 14:07:00,
2013-03-04 09:12:00,50.3,32.8,30.23,SE,141,1.4,2.3,51,0.00,CLR,,0.00,WeatherDisplay:10.37,2013-03-04 14:12:00,
2013-03-04 09:17:00,51.1,33.1,30.23,NNE,23,1.0,1.1,50,0.00,CLR,,0.00,WeatherDisplay:10.37,2013-03-04 14:17:00,
2013-03-04 09:22:00,51.3,33.3,30.22,NE,37,2.4,4.6,50,0.00,CLR,,0.00,WeatherDisplay:10.37,2013-03-04 14:22:00,
2013-03-04 09:27:00,51.5,33.5,30.23,NE,53,2.9,3.5,50,0.00,CLR,,0.00,WeatherDisplay:10.37,2013-03-04 14:27:00,
2013-03-04 09:32:00,52.0,33.4,30.23,SSE,160,1.7,4.6,49,0.00,CLR,,0.00,WeatherDisplay:10.37,2013-03-04 14:32:00,
2013-03-04 09:37:00,52.3,33.7,30.22,ENE,60,0.8,2.3,49,0.00,CLR,,0.00,WeatherDisplay:10.37,2013-03-04 14:37:00,
2013-03-04 09:42:00,52.2,33.1,30.23,NNE,33,3.4,8.1,48,0.00,CLR,,0.00,WeatherDisplay:10.37,2013-03-04 14:42:00,
2013-03-04 09:47:00,51.7,33.1,30.22,NNE,19,3.4,6.9,49,0.00,CLR,,0.00,WeatherDisplay:10.37,2013-03-04 14:47:00,
2013-03-04 09:52:00,52.5,34.4,30.22,East,97,1.8,5.8,50,0.00,CLR,,0.00,WeatherDisplay:10.37,2013-03-04 14:52:00,
2013-03-04 09:57:00,53.2,34.0,30.22,NE,55,2.2,3.5,48,0.00,CLR,,0.00,WeatherDisplay:10.37,2013-03-04 14:57:00,
2013-03-04 10:02:00,54.1,34.3,30.22,SE,124,0.3,3.5,47,0.00,CLR,,0.00,WeatherDisplay:10.37,2013-03-04 15:02:00,
2013-03-04 10:07:00,53.9,34.1,30.22,NE,37,1.7,4.6,47,0.00,CLR,,0.00,WeatherDisplay:10.37,2013-03-04 15:07:00,
2013-03-04 10:12:00,53.5,33.7,30.22,NNW,348,3.1,5.0,47,0.00,CLR,,0.00,WeatherDisplay:10.37,2013-03-04 15:12:00,
2013-03-04 10:17:00,53.3,34.1,30.22,ESE,121,0.5,10.4,48,0.00,CLR,,0.00,WeatherDisplay:10.37,2013-03-04 15:17:00,
2013-03-04 10:22:00,53.5,34.8,30.22,ENE,65,0.0,4.6,49,0.00,CLR,,0.00,WeatherDisplay:10.37,2013-03-04 15:22:00,
2013-03-04 10:27:00,53.9,34.6,30.22,ENE,64,2.4,3.0,48,0.00,CLR,,0.00,WeatherDisplay:10.37,2013-03-04 15:27:00,
2013-03-04 10:32:00,54.4,34.6,30.22,East,91,0.8,6.9,47,0.00,CLR,,0.00,WeatherDisplay:10.37,2013-03-04 15:32:00,
2013-03-04 10:37:00,54.4,35.1,30.22,NE,44,5.1,10.4,48,0.00,CLR,,0.00,WeatherDisplay:10.37,2013-03-04 15:37:00,
2013-03-04 10:42:00,54.6,35.3,30.21,NNE,19,7.7,8.1,48,0.00,CLR,,0.00,WeatherDisplay:10.37,2013-03-04 15:42:00,
2013-03-04 10:47:00,55.1,35.7,30.21,North,359,5.7,9.2,48,0.00,CLR,,0.00,WeatherDisplay:10.37,2013-03-04 15:47:00,
2013-03-04 10:52:00,55.0,35.7,30.21,North,4,1.2,3.0,48,0.00,CLR,,0.00,WeatherDisplay:10.37,2013-03-04 15:52:00,
2013-03-04 10:57:00,55.4,36.5,30.21,NE,54,4.0,6.9,49,0.00,CLR,,0.00,WeatherDisplay:10.37,2013-03-04 15:57:00,
2013-03-04 11:02:00,56.1,37.2,30.21,NNW,348,4.8,5.8,49,0.00,CLR,,0.00,WeatherDisplay:10.37,2013-03-04 16:02:00,
2013-03-04 11:07:00,56.0,36.6,30.21,North,352,3.8,6.9,48,0.00,CLR,,0.00,WeatherDisplay:10.37,2013-03-04 16:07:00,
2013-03-04 11:12:00,56.6,37.1,30.21,NNW,340,5.1,5.1,48,0.00,CLR,,0.00,WeatherDisplay:10.37,2013-03-04 16:12:00,
2013-03-04 11:17:00,56.4,36.9,30.21,NNE,32,5.1,8.1,48,0.00,CLR,,0.00,WeatherDisplay:10.37,2013-03-04 16:17:00,
2013-03-04 11:22:00,56.6,37.1,30.21,North,356,2.1,3.5,48,0.00,CLR,,0.00,WeatherDisplay:10.37,2013-03-04 16:22:00,
2013-03-04 11:27:00,56.8,37.8,30.20,NNW,337,4.4,6.0,49,0.00,CLR,,0.00,WeatherDisplay:10.37,2013-03-04 16:27:00,
2013-03-04 11:32:00,57.3,37.2,30.20,NNW,340,5.1,8.1,47,0.00,CLR,,0.00,WeatherDisplay:10.37,2013-03-04 16:32:00,
2013-03-04 11:37:00,57.4,37.9,30.20,NNW,335,2.4,11.5,48,0.00,CLR,,0.00,WeatherDisplay:10.37,2013-03-04 16:37:00,
2013-03-04 11:42:00,57.4,37.9,30.20,NW,326,2.0,5.8,48,0.00,CLR,,0.00,WeatherDisplay:10.37,2013-03-04 16:42:00,
2013-03-04 11:47:00,57.8,37.7,30.19,NW,304,4.1,8.1,47,0.00,CLR,,0.00,WeatherDisplay:10.37,2013-03-04 16:47:00,
2013-03-04 11:52:00,57.5,37.9,30.19,WNW,282,1.6,4.6,48,0.00,CLR,,0.00,WeatherDisplay:10.37,2013-03-04 16:52:00,
2013-03-04 11:57:00,58.1,39.0,30.19,North,350,2.4,6.9,49,0.00,CLR,,0.00,WeatherDisplay:10.37,2013-03-04 16:57:00,
2013-03-04 12:02:00,57.9,37.8,30.19,NNE,12,4.4,5.8,47,0.00,CLR,,0.00,WeatherDisplay:10.37,2013-03-04 17:02:00,
2013-03-04 12:07:00,57.9,37.8,30.19,NNW,338,3.3,6.9,47,0.00,CLR,,0.00,WeatherDisplay:10.37,2013-03-04 17:07:00,
2013-03-04 12:13:00,58.3,38.1,30.19,NNW,338,2.9,8.1,47,0.00,CLR,,0.00,WeatherDisplay:10.37,2013-03-04 17:13:00,
2013-03-04 12:18:00,58.5,38.3,30.19,North,354,4.7,6.9,47,0.00,CLR,,0.00,WeatherDisplay:10.37,2013-03-04 17:18:00,
2013-03-04 20:19:00,51.7,44.4,30.14,North,9,0.0,13.0,76,0.00,CLR,,0.00,WeatherDisplay:10.37,2013-03-05 01:19:00,
2013-03-04 20:20:00,51.7,44.4,30.14,North,9,0.0,13.0,76,0.00,CLR,,0.00,WeatherDisplay:10.37,2013-03-05 01:20:00,
2013-03-04 20:25:00,51.6,44.3,30.14,North,9,0.0,0.0,76,0.00,CLR,,0.00,WeatherDisplay:10.37,2013-03-05 01:25:00,
2013-03-04 20:30:00,51.3,44.3,30.14,North,9,0.0,0.0,77,0.00,CLR,,0.00,WeatherDisplay:10.37,2013-03-05 01:30:00,
2013-03-04 20:35:00,51.0,44.4,30.14,North,8,0.0,0.0,78,0.00,CLR,,0.00,WeatherDisplay:10.37,2013-03-05 01:35:00,
2013-03-04 20:40:00,50.6,44.3,30.14,North,9,0.0,0.0,79,0.00,CLR,,0.00,WeatherDisplay:10.37,2013-03-05 01:40:00,
2013-03-04 20:45:00,50.3,44.4,30.14,North,9,0.0,0.0,80,0.00,CLR,,0.00,WeatherDisplay:10.37,2013-03-05 01:45:00,
2013-03-04 20:50:00,50.0,44.4,30.15,North,9,0.0,0.0,81,0.00,CLR,,0.00,WeatherDisplay:10.37,2013-03-05 01:50:00,
2013-03-04 20:55:00,49.7,44.4,30.15,North,9,0.0,0.0,82,0.00,CLR,,0.00,WeatherDisplay:10.37,2013-03-05 01:55:00,
2013-03-04 21:00:00,49.2,43.9,30.15,North,9,0.0,0.0,82,0.00,CLR,,0.00,WeatherDisplay:10.37,2013-03-05 02:00:00,
2013-03-04 21:05:00,48.8,43.9,30.15,North,9,0.0,0.0,83,0.00,CLR,,0.00,WeatherDisplay:10.37,2013-03-05 02:05:00,
2013-03-04 21:10:00,48.6,43.7,30.15,North,9,0.0,0.0,83,0.00,CLR,,0.00,WeatherDisplay:10.37,2013-03-05 02:10:00,
2013-03-04 21:15:00,48.4,43.8,30.15,North,9,0.0,0.0,84,0.00,CLR,,0.00,WeatherDisplay:10.37,2013-03-05 02:15:00,
2013-03-04 21:20:00,48.1,43.2,30.15,North,9,0.0,0.0,83,0.00,CLR,,0.00,WeatherDisplay:10.37,2013-03-05 02:20:00,
2013-03-04 21:25:00,48.0,43.7,30.15,North,8,0.0,0.0,85,0.00,CLR,,0.00,WeatherDisplay:10.37,2013-03-05 02:25:00,
2013-03-04 21:30:00,47.7,43.4,30.15,North,8,0.0,0.0,85,0.00,CLR,,0.00,WeatherDisplay:10.37,2013-03-05 02:30:00,
2013-03-04 21:35:00,47.5,43.5,30.15,North,8,0.0,0.0,86,0.00,CLR,,0.00,WeatherDisplay:10.37,2013-03-05 02:35:00,
2013-03-04 21:40:00,47.7,44.3,30.15,North,8,0.0,0.0,88,0.00,CLR,,0.00,WeatherDisplay:10.37,2013-03-05 02:40:00,
2013-03-04 21:45:00,47.5,43.8,30.15,North,9,0.0,0.0,87,0.00,CLR,,0.00,WeatherDisplay:10.37,2013-03-05 02:45:00,
2013-03-04 21:50:00,47.1,43.4,30.16,North,9,0.0,0.0,87,0.00,CLR,,0.00,WeatherDisplay:10.37,2013-03-05 02:50:00,
2013-03-04 21:55:00,46.8,43.4,30.16,North,9,0.0,0.0,88,0.00,CLR,,0.00,WeatherDisplay:10.37,2013-03-05 02:55:00,
2013-03-04 22:00:00,46.7,43.3,30.16,North,9,0.0,0.0,88,0.00,CLR,,0.00,WeatherDisplay:10.37,2013-03-05 03:00:00,
2013-03-04 22:05:00,46.6,43.2,30.16,North,9,0.0,0.0,88,0.00,CLR,,0.00,WeatherDisplay:10.37,2013-03-05 03:05:00,
2013-03-04 22:10:00,46.5,43.1,30.16,North,9,0.0,0.0,88,0.00,CLR,,0.00,WeatherDisplay:10.37,2013-03-05 03:10:00,
2013-03-04 22:16:00,46.4,43.3,30.16,North,9,0.0,0.0,89,0.00,CLR,,0.00,WeatherDisplay:10.37,2013-03-05 03:16:00,
2013-03-04 22:21:00,46.1,42.7,30.16,North,9,0.0,0.0,88,0.00,CLR,,0.00,WeatherDisplay:10.37,2013-03-05 03:21:00,
2013-03-04 22:26:00,45.9,42.8,30.17,North,9,0.0,0.0,89,0.00,CLR,,0.00,WeatherDisplay:10.37,2013-03-05 03:26:00,
2013-03-04 22:31:00,45.7,42.6,30.17,North,8,0.0,0.0,89,0.00,CLR,,0.00,WeatherDisplay:10.37,2013-03-05 03:31:00,
2013-03-04 22:36:00,45.4,42.3,30.16,North,9,0.0,0.0,89,0.00,CLR,,0.00,WeatherDisplay:10.37,2013-03-05 03:36:00,
2013-03-04 22:41:00,45.1,42.1,30.16,North,9,0.0,0.0,89,0.00,CLR,,0.00,WeatherDisplay:10.37,2013-03-05 03:41:00,
2013-03-04 22:46:00,45.1,42.6,30.16,North,9,0.0,0.0,91,0.00,CLR,,0.00,WeatherDisplay:10.37,2013-03-05 03:46:00,
2013-03-04 22:51:00,45.3,43.1,30.17,North,9,0.0,0.0,92,0.00,CLR,,0.00,WeatherDisplay:10.37,2013-03-05 03:51:00,
2013-03-04 22:56:00,45.5,43.3,30.17,North,9,0.0,0.0,92,0.00,CLR,,0.00,WeatherDisplay:10.37,2013-03-05 03:56:00,
2013-03-04 23:01:00,45.5,43.0,30.16,SE,145,0.0,0.0,91,0.00,CLR,,0.00,WeatherDisplay:10.37,2013-03-05 04:01:00,
2013-03-04 23:06:00,45.1,42.3,30.16,SE,145,0.0,0.0,90,0.00,CLR,,0.00,WeatherDisplay:10.37,2013-03-05 04:06:00,
2013-03-04 23:11:00,44.9,42.4,30.16,SE,145,0.0,0.0,91,0.00,CLR,,0.00,WeatherDisplay:10.37,2013-03-05 04:11:00,
2013-03-04 23:16:00,44.8,42.3,30.16,SE,145,0.0,0.0,91,0.00,CLR,,0.00,WeatherDisplay:10.37,2013-03-05 04:16:00,
2013-03-04 23:21:00,44.8,42.6,30.16,SE,145,0.0,0.0,92,0.00,CLR,,0.00,WeatherDisplay:10.37,2013-03-05 04:21:00,
2013-03-04 23:26:00,44.6,42.1,30.16,SE,145,0.0,0.0,91,0.00,CLR,,0.00,WeatherDisplay:10.37,2013-03-05 04:26:00,
2013-03-04 23:31:00,44.4,41.9,30.16,SE,145,0.0,0.0,91,0.00,CLR,,0.00,WeatherDisplay:10.37,2013-03-05 04:31:00,
2013-03-04 23:36:00,44.3,42.1,30.16,SE,145,0.0,0.0,92,0.00,CLR,,0.00,WeatherDisplay:10.37,2013-03-05 04:36:00,
2013-03-04 23:41:00,44.4,42.2,30.15,SE,145,0.0,0.0,92,0.00,CLR,,0.00,WeatherDisplay:10.37,2013-03-05 04:41:00,
2013-03-04 23:46:00,44.3,42.1,30.15,SE,145,0.0,0.0,92,0.00,CLR,,0.00,WeatherDisplay:10.37,2013-03-05 04:46:00,
2013-03-04 23:51:00,44.2,42.0,30.15,SE,145,0.0,0.0,92,0.00,CLR,,0.00,WeatherDisplay:10.37,2013-03-05 04:51:00,
2013-03-04 23:56:00,44.3,42.1,30.15,SE,146,0.0,0.0,92,0.00,CLR,,0.00,WeatherDisplay:10.37,2013-03-05 04:56:00,